Regional Weather Roundup
Issued by NWS

Home | Current Version | Previous Version | Graphics & Text | Print | Product List | Glossary Off
Versions: 1 2 3 4 5 6 7 8 9 10 11 12 13 14 15 16 17 18 19 20 21 22 23 24 25 26 27 28 29 30 31 32 33 34 35 36 37 38 39 40 41 42 43 44 45 46 47 48 49 50

000
ASUS43 KLMK 231110
RWRKY
KENTUCKY REGIONAL WEATHER ROUNDUP
NATIONAL WEATHER SERVICE LOUISVILLE KY
700 AM EDT THU OCT 23 2014

NOTE "FAIR" INDICATES FEW OR NO CLOUDS BELOW 12,000 FEET
WITH NO SIGNIFICANT WEATHER AND/OR OBSTRUCTIONS TO VISIBILITY.

KYZ001>023-026-027-061>063-070>075-231200-
WESTERN AND SOUTH CENTRAL KENTUCKY

CITY           SKY/WX    TMP DP  RH WIND       PRES   REMARKS
PADUCAH        CLEAR     36  34  92 CALM      30.22R FOG
HENDERSON      CLEAR    N/A N/A N/A CALM      30.25R
OWENSBORO      CLEAR     36  35  96 CALM      30.25S
HOPKINSVILLE   CLEAR     39  39 100 E3        30.23S
BOWLING GREEN  FOG       36  34  92 CALM      30.25S VSB 3/4
GLASGOW        CLEAR     36  36 100 CALM      30.25R FOG
$$

KYZ024-025-028>034-038-045-046-053-231200-
NORTH CENTRAL KENTUCKY

CITY           SKY/WX    TMP DP  RH WIND       PRES   REMARKS
LOUISVILLE/SDF CLEAR     42  38  85 SE6       30.26S
LOUISVILLE/LOU CLEAR     38  35  89 CALM      30.27R
FORT KNOX      CLEAR     37  35  96 CALM      30.24S
$$

KYZ035>037-039>044-047>052-055>060-089>105-231200-
NORTHEAST KENTUCKY

CITY           SKY/WX    TMP DP  RH WIND       PRES   REMARKS
LEXINGTON      CLOUDY    49  39  68 NE5       30.25R
COVINGTON      CLEAR     42  37  82 CALM      30.25R
FRANKFORT      CLOUDY    44  39  82 CALM      30.25R
$$

KYZ054-064>069-076>088-106>120-231200-
SOUTHEAST KENTUCKY

CITY           SKY/WX    TMP DP  RH WIND       PRES   REMARKS
JACKSON        CLOUDY    46  38  73 CALM      30.22S
LONDON         CLOUDY    48  41  76 NE3       30.24R
SOMERSET       CLOUDY    45  39  81 NE3       30.26R
MIDDLESBORO    CLOUDY    47  40  74 NE3       30.23R
MONTICELLO     CLOUDY    46  41  83 NE3       30.25R
$$




USA.gov is the U.S. government's official web portal to all federal, state and local government web resources and services.